Weather Roundup
Issued by NWS Corpus Christi, TX

Home | Current Version | Previous Version | Text Only | Print | Product List | Glossary On
Versions: 1 2 3 4 5 6 7 8 9 10 11 12 13 14 15 16 17 18 19 20 21 22 23 24 25 26 27 28 29 30 31 32 33 34 35 36 37 38 39 40 41 42 43 44 45 46 47 48 49 50
000
ASUS44 KCRP 300910
HRRCRP

SOUTH TEXAS REGIONAL WEATHER ROUNDUP
NATIONAL WEATHER SERVICE CORPUS CHRISTI TX
400 AM CDT MON MAR 30 2015


TXZ229>244-301000-
...CORPUS CHRISTI AREA OBSERVATIONS...

CITY           SKY/WX    TMP DP  RH WIND       PRES   REMARKS
CORPUS CHRISTI MOCLDY    66  64  93 S13       30.07F
NAS CORPUS CHR CLEAR     67  66  97 S14       30.07F
ROCKPORT       CLEAR     69  65  86 S7        30.09F
KINGSVILLE NAS PTCLDY    68  67  96 S12       30.06F
ALICE          CLOUDY    68  65  90 S10       30.06F
FALFURRIAS     CLOUDY    67  64  92 SE6       30.06F
$$

...VICTORIA AREA OBSERVATIONS...

CITY           SKY/WX    TMP DP  RH WIND       PRES   REMARKS
VICTORIA       CLOUDY    67  66  97 S6        30.12F
BEEVILLE       CLOUDY    66  66 100 SE6       30.08F
PLEASANTON     CLOUDY    64  62  96 E3        30.10F
SAN ANTONIO    CLOUDY    64  62  93 E5        30.11F
$$

...LAREDO AREA OBSERVATIONS...

CITY           SKY/WX    TMP DP  RH WIND       PRES   REMARKS
LAREDO         PTCLDY    66  63  90 SE10      30.04F
COTULLA        PTCLDY    65  61  87 SE7       30.06F
DEL RIO        CLOUDY    68  60  75 E10       30.03F
MCALLEN        CLOUDY    71  67  87 S17G26    30.05F
HEBBRONVILLE   NOT AVBL
$$

...OTHER TEXAS OBSERVATIONS...

CITY           SKY/WX    TMP DP  RH WIND       PRES   REMARKS
BROWNSVILLE    CLEAR     69  67  93 S10       30.07F
HOUSTON        PTCLDY    64  63  96 S5        30.12F
COL. STATION   CLEAR     63  60  90 S5        30.12F
AUSTIN         CLOUDY    62  61  96 S8        30.10F
WACO           CLEAR     61  59  93 S10       30.10S
FORT WORTH     PTCLDY    63  55  75 S6        30.09S
WICHITA FALLS  CLEAR     48  42  80 N7        30.13F
LUBBOCK        CLOUDY    49  29  46 NE9       30.18F
EL PASO        CLOUDY    70  32  24 E8        30.16R
$$

...MARINE OBSERVATIONS...

STATION/POSITION TIME  SKY/WX   TEMP    WIND        PRES    VSBY  WAVE   SWELL
                                AIR SEA DIR/SP/G                  HT/PER HT/PER
                 (UTC)          (F)     (DEG/KT/KT) (MB)    (MI)  (FT/S) (FT/S)
PORT ARANSAS     0900            68 67  150/ 14/ 15 1018.9F
BUOY 90 E PORT A 0900            71 70  170/ 16/ 17 1019.9F         5/ 6
BUOY 45 SE BAFFI 0900            71 71  160/ 17/ 19 1017.9F         4/ 6
BUOY 200 E PT IS 0900            73 72  160/ 16/ 17 1020.8F         3/ 5
BUOY 15 E GALVES 0900            67 67  180/  8/  8 1020.1F         3/ 7   3/ 7
$$



USA.gov is the U.S. government's official web portal to all federal, state and local government web resources and services.